Regional Weather Roundup
Issued by NWS Grand Forks, ND

Home | Current Version | Previous Version | Text Only | Print | Product List | Glossary Off
Versions: 1 2 3 4 5 6 7 8 9 10 11 12 13 14 15 16 17 18 19 20 21 22 23 24 25 26 27 28 29 30 31 32 33 34 35 36 37 38 39 40 41 42 43 44 45 46 47 48 49 50

000
ASUS43 KFGF 271431
RWRFGF
PRAIRIE TO PINES  WEATHER ROUNDUP
NATIONAL WEATHER SERVICE EASTERN NORTH DAKOTA/GRAND FORKS ND
900 AM CDT WED JUL 27 2016

 **SATELLITE DATA USED TO AUGMENT SKY COVER AT AUTOMATED STATIONS**
 *****  WEATHER ACROSS EASTERN NORTH DAKOTA  *****

CITY           SKY/WX    TMP DP  RH WIND       PRES   REMARKS
GRAND FORKS    MOSUNNY   66  59  78 N12       30.05F
GRAND FRKS AFB SUNNY     66  59  77 N9        30.07S
GRAND FRKS NWS   N/A     66 N/A N/A N9          N/A
DEVILS LAKE    CLOUDY    63  58  83 N10       30.13R
FARGO          SUNNY     68  60  75 N15       30.01F
WAHPETON ARPT  CLOUDY    64  61  88 N7        30.01R
$$

 ***** WEATHER ACROSS CENTRAL AND WESTERN NORTH DAKOTA  *****

CITY           SKY/WX    TMP DP  RH WIND       PRES   REMARKS
BISMARCK       PTSUNNY   68  62  81 CALM      30.11R
MINOT          PTSUNNY   68  60  75 NE6       30.12R
JAMESTOWN      PTSUNNY   67  60  78 N7        30.08R
MINOT AFB      CLOUDY    64  58  81 E3        30.12R
GARRISON         N/A     67  63  87 VRB6      30.12R
WILLISTON      CLOUDY    66  55  67 N6        30.13R
DICKINSON      CLOUDY    62  60  93 E8        30.10F
HETTINGER      CLOUDY    63  60  90 NE7       30.13S FOG
$$

 *****  OTHER AIRPORT OBSERVATIONS IN OUR AREA  *****

CITY           SKY/WX    TMP DP  RH WIND       PRES   REMARKS
WALHALLA       FAIR      64  61  88 N12       30.12S
GRAFTON AIRPOR FAIR      66  61  82 N8        30.09S
VALLEY CITY AR PTSUNNY   66  63  88 NE10      30.09R
CANDO          CLOUDY    63  57  82 NE6       30.15R
CAVALIER APRT  FAIR      64  57  77 N13       30.10R
GWINNER        FAIR      70  63  78 N10       30.04F
SHEYENNE NWR     N/A     68  61  79 N7        29.95S
ROLLA          PTSUNNY   63  55  77 NE12      30.16R
 ***** THE ABOVE OBSERVATIONS ARE NON NWS ARE NOT QUALITY
       CONTROLLED AND MAY MIS-REPORT RAIN FOR SNOW...
$$

  *****  WEATHER ACROSS NORTHERN MINNESOTA  *****

CITY           SKY/WX    TMP DP  RH WIND       PRES   REMARKS
FLAG ISLAND    MOSUNNY   66  55  68 NE8       30.06S
WARROAD        MOSUNNY   68  63  83 NE10      30.06R
ROSEAU         SUNNY     64  59  82 N7        30.05S
HALLOCK        SUNNY     64  59  82 N8        30.07S
THF RVR FALLS  MOSUNNY   68  55  63 N10       30.04F
BAUDETTE       CLOUDY    69  57  65 E12       30.04S
WASKISH        CLOUDY    66  61  82 E5        30.03S
CROOKSTON      SUNNY     68  59  73 N10       30.04S
STEPHEN NDAWN    N/A     63  57  82 N7          N/A
GREENBUSH NDAW   N/A     63  59  88 VRB6        N/A
$$
  *****  WEATHER ACROSS CENTRAL AND WEST MINNESOTA  *****

CITY           SKY/WX    TMP DP  RH WIND       PRES   REMARKS
FOSSTON        PTSUNNY   64  57  77 N3        30.03F
BEMIDJI        CLOUDY    63  61  94 N5        30.03S
PARK RAPIDS    LGT RAIN  65  61  87 N5        29.99F
ELBOW LAKE     PTSUNNY   67  66  99 W7        30.00R
WADENA         CLOUDY    63  63 100 NE5       29.99S
DETROIT LAKES  PTSUNNY   64  61  88 N5        30.02R
MOORHEAD       MOSUNNY   66  61  82 N12       30.01S
FERGUS FALLS   CLOUDY    68  66  94 N7        30.01R
MORRIS MN      MOSUNNY   70  66  88 NW3       29.97S
STAPLES        HVY RAIN  63  61  94 CALM      30.00S VSB 1
$$
  *****  WEATHER ELSEWHERE ACROSS MINNESOTA  *****

CITY           SKY/WX    TMP DP  RH WIND       PRES   REMARKS
DULUTH         CLOUDY    67  56  67 E12       30.00S
INTRNTL FALLS  CLOUDY    67  56  67 E8        30.05R
ELY            RAIN      61  59  94 CALM      30.06S
CLOQUET        CLOUDY    66  59  77 E7        30.00S
WHEATON        CLOUDY    68  68 100 NW7       30.01S
BRAINERD       LGT RAIN  67  66  97 NE5       29.99S
HIBBING        CLOUDY    66  57  72 NE7       30.02R
ALEXANDRIA     PTSUNNY   68  65  90 MISG      29.99R
SAINT CLOUD    CLOUDY    68  68 100 SE7       29.98R
MINNEAPOLIS    CLOUDY    76  68  76 CALM      29.98S
$$

  *****  WEATHER ACROSS SOUTH DAKOTA  *****

CITY           SKY/WX    TMP DP  RH WIND       PRES   REMARKS
SIOUX FALLS    MOSUNNY   74  67  78 N7        29.97F
BROOKINGS      SUNNY     68  65  90 NW3       29.99R
WATERTOWN      PTSUNNY   71  64  78 N13       30.02R
HURON          SUNNY     71  64  78 N12       30.01R
SISSETON         N/A     68  66  93 N12       30.00S
ABERDEEN       PTSUNNY   69  63  81 NE14      30.04R
MITCHELL       MOSUNNY   75  66  73 NW12      30.01R
PIERRE         SUNNY     71  64  78 N8        30.03R
MOBRIDGE       CLOUDY    70  62  76 N6        30.05S
RAPID CITY     CLOUDY    67  62  84 SE6       30.12F
$$

  *****  SOME WEATHER IN NEARBY STATES *****

CITY           SKY/WX    TMP DP  RH WIND       PRES   REMARKS
GLASGOW MT     LGT RAIN  62  61  96 VRB6      30.12R
GREAT FALLS MT SUNNY     61  55  81 CALM      30.18S
CHEYENNE WY    MOSUNNY   61  52  72 N8G18     30.30R
SCOTTSBLUFF NE CLOUDY    65  60  84 E8        30.22R
OMAHA NE       CLOUDY    76  67  73 S7        29.99R
DES MOINES IA  CLOUDY    76  66  71 SE10      29.98S
DAVENPORT IA   SUNNY     76  68  76 E5        30.03S
CHICAGO IL     MOSUNNY   81  65  58 CALM      30.01F
EAU CLAIRE WI  CLOUDY    74  69  85 NE3       30.01R
LA CROSSE WI   SUNNY     78  69  73 S5        30.01R
$$

  *****  SOME NATIONAL WEATHER *****

CITY           SKY/WX    TMP DP  RH WIND       PRES   REMARKS
LA GUARDIA NY  MOSUNNY   82  60  47 E7        29.95S
RALEIGH NC     CLOUDY    82  77  84 CALM      30.00S HX  90
ATLANTA GA     CLOUDY    79  71  76 W8        30.10S
NEW ORLEANS LA CLOUDY    77  73  87 W5        30.04R
OKLAHOMA CITY  PTSUNNY   80  71  74 VRB3      30.00S
ALBUQUERQUE NM MOSUNNY   74  60  61 CALM      30.25R
SALT LAKE CITY SUNNY     77  42  28 SE9       30.11R
LOS ANGELES CA MOSUNNY   70  65  84 VRB5      29.90R
BOISE ID       SUNNY     72  41  32 S9        30.05R
SEATTLE WA     MOSUNNY   59  57  93 CALM      30.15R
$$

*** WEATHER ACROSS MANITOBA...SASKATCHEWAN AND ONTARIO ***
                ***ONTARIO***

CITY           SKY/WX    TMP DP  RH WIND       PRES   REMARKS
GERALDTON      MOSUNNY   61  48  63 NW9       30.05S
THUNDER BAY    PTSUNNY   66  55  68 NE6       30.04S
SIOUX LOOKOUT  PTSUNNY   61  54  77 N3        30.11R
TORONTO        MOSUNNY   82  63  51 W10       29.95S
BIG TROUT LK   NOT AVBL
PICKLE LAKE    PTSUNNY   55  48  76 N7        30.11S
DRYDEN         PTSUNNY   63  55  77 NE12      30.10R
KENORA         MOSUNNY   64  55  72 E9        30.10R
$$
                *** MANITOBA***

CITY           SKY/WX    TMP DP  RH WIND       PRES   REMARKS
BRANDON        MOSUNNY   63  55  77 NE9       30.16S
DAUPHIN        CLOUDY    59  57  94 W5        30.18F
ISLAND LAKE    CLOUDY    59  54  82 NE6       30.18S
PILOT MOUND      N/A     63  57  82 N7          N/A
THE PAS        MOSUNNY   64  57  77 S8        30.18S
THOMPSON       MOSUNNY   57  52  82 CALM      30.19S
WINNIPEG       MOSUNNY   64  57  77 NE9       30.11R
LYNN LAKE      SUNNY     61  52  72 MISG      30.11F
CHURCHILL      MOSUNNY   57  52  82 N8        30.14S
GILLAM         PTSUNNY   59  46  63 N7        30.17S
$$
                ***SASKATCHEWAN***

CITY           SKY/WX    TMP DP  RH WIND       PRES   REMARKS
ESTEVAN        MOSUNNY   63  57  82 E7        30.14S
KINDERSLEY     MOSUNNY   64  54  68 SE13      30.16R
LLOYDMINSTER   PTSUNNY   59  57  94 S5        30.14S
PRINCE ALBERT  MOSUNNY   64  57  77 W3        30.18R
REGINA         PTSUNNY   64  55  72 SE9       30.17S
YORKTON        MOSUNNY   59  55  88 VRB2      30.20R
N. BATTLEFORD  SUNNY     66  54  63 SE8       30.18R
LA RONGE       PTSUNNY   64  55  72 S3        30.10R
SASKATOON      PTSUNNY   64  54  68 S2        30.19S
SWIFT CURRENT  SUNNY     61  54  77 E10       30.16S
$$
NOTE: THESE ARE AUTOMATED STATIONS WITH LIMITED QUALITY CONTROL
      "FAIR" INDICATES FEW OR NO CLOUDS BELOW 12,000 FEET WITH NO
      SIGNIFICANT WEATHER AND/OR OBSTRUCTIONS TO VISIBILITY.
      SKY/WX - SKY CONDITION AND SIGNIFICANT WEATHER.
      TMP - AIR TEMPERATURE.    DP   - DEWPOINT TEMPERATURE.
      RH  - RELATIVE HUMIDITY.  PRES - PRESSURE.
      HX  - HEAT INDEX.         WCI  - WIND CHILL INDEX.
$




USA.gov is the U.S. government's official web portal to all federal, state and local government web resources and services.